[[{"header":{"parameterUnit":"m.s-1","parameterCategory":1,"la1":30.2991,"la2":30.254,"lo1":-89.0895,"lo2":-89.0444,"dy":0.0017,"dx":0.0017,"nx":28,"ny":28,"refTime":"2025-03-11T03:00:00:Z","depth":0,"parameterNumber":2,"parameterNumberName":"U-component_of_WINDS"},"data":[0,0,0,0,0,0,0,0,0,0,0,0,0,0,0,0,0,0,0,0,0,0,0,0,0,0,0,0,0,0,0,0,0,0,0,0,0,0,0,0,0,0,0,0,0,0,0,0,0,0,0,0,0,0,0,0,0,0,0.8105,0.8104,0,0.8038,0.8038,0.8037,0.7969,0.7968,0.7967,0.7966,0.79,0.7899,0.7898,0,0,0,0,0,0,0,0,0,0,0,0,0,0.8178,0.8177,0.8105,0.8104,0.8103,0.8038,0.8037,0.8037,0.7969,0.7968,0.7967,0.7965,0.79,0.7899,0.7898,0,0,0,0,0,0,0,0,0,0,0,0,0,0.8132,0.8176,0.8105,0.8062,0.8057,0.8039,0.8037,0.8036,0.7969,0.7968,0.7966,0.7965,0.7901,0.7899,0.7898,0.7918,0,0,0.7894,0.7894,0,0,0,0,0,0,0,0,0.8135,0.813,0.8069,0.8064,0.8059,0.801,0.8039,0.7997,0.7969,0.8003,0.7966,0.7964,0.7938,0.7934,0.7924,0.7915,0.7912,0.7894,0.7893,0.7893,0.7892,0,0,0,0,0,0,0,0.8138,0.8132,0.8079,0.8068,0.8062,0.8047,0.8039,0.8031,0.7979,0.7999,0.7994,0.7987,0.7935,0.7926,0.7922,0.7911,0.7894,0.7893,0.7892,0.7892,0.7919,0.792,0,0,0,0,0,0,0.8147,0.8135,0.8081,0.8077,0.8094,0.8047,0.8038,0.8027,0.7979,0.797,0.7989,0.7984,0.7929,0.7924,0.792,0.7943,0.7893,0.7891,0.7891,0.7917,0.7919,0.7921,0,0,0,0,0,0,0.8149,0.8143,0.8083,0.8104,0.8096,0.8047,0.8036,0.8027,0.8017,0.7971,0.7961,0.7988,0.7927,0.7921,0.792,0.7939,0.7891,0.789,0.7916,0.7918,0.792,0.7987,0,0,0,0,0,0,0.8152,0.8144,0.815,0.8105,0.8095,0.8084,0.8037,0.8027,0.8015,0.8009,0.7968,0.796,0.7926,0.7922,0.7918,0.7937,0.7889,0.7914,0.7917,0.7919,0.7983,0.7992,0.7999,0,0,0,0,0,0.8154,0.8171,0.8151,0.8144,0.8101,0.8085,0.8079,0.8039,0.8017,0.8023,0.7994,0.7961,0.7937,0.7922,0.7918,0.7936,0.7912,0.7916,0.7919,0.798,0.799,0.7999,0,0,0,0,0,0,0.822,0.8164,0.8141,0.8143,0.8119,0.8073,0.808,0.8051,0.8033,0.8028,0.798,0.7971,0.7976,0.7955,0.7939,0.7955,0.792,0.7923,0.7968,0.7977,0.7985,0.7991,0.7887,0,0,0,0,0,0.8235,0.8225,0.8177,0.8184,0.8173,0.8129,0.812,0.8092,0.8065,0.8055,0.8025,0.8001,0.7989,0.7982,0.7967,0.7979,0.7971,0.799,0.7998,0.8004,0.8008,0.8017,0.8025,0.7932,0.7932,0.7932,0,0,0.8265,0.8233,0.823,0.8197,0.8175,0.8168,0.8121,0.8114,0.811,0.8054,0.8051,0.8029,0.7999,0.8006,0.8007,0.7989,0.8032,0.8009,0.8014,0.8014,0.8021,0.803,0.8038,0.7935,0.7934,0.7934,0,0,0.8317,0.8291,0.8296,0.8275,0.8242,0.8213,0.8215,0.8173,0.8156,0.8153,0.8112,0.8106,0.8084,0.8066,0.8054,0.8103,0.8073,0.8099,0.8141,0.815,0.8157,0.8164,0.8185,0.8192,0.8102,0.8103,0.8103,0,0.836,0.8346,0.8302,0.8299,0.8287,0.8237,0.8243,0.8225,0.8189,0.8183,0.8163,0.8137,0.8113,0.8117,0.8129,0.8119,0.8122,0.8105,0.816,0.8166,0.8171,0.819,0.8198,0.8106,0.8106,0.8105,0.8105,0,0.8402,0.8393,0.8401,0.8369,0.8357,0.8359,0.8317,0.8311,0.8284,0.8258,0.8257,0.8227,0.8207,0.8205,0.8178,0.8206,0.8196,0.8168,0.8134,0.8184,0.8202,0.8208,0.8112,0.811,0.8109,0.8108,0,0,0.8493,0.8438,0.8442,0.8428,0.839,0.8383,0.8384,0.8364,0.8362,0.8339,0.8341,0.8325,0.83,0.8287,0.8257,0.8265,0.831,0.8237,0.8235,0.8254,0.8342,0.8366,0.8375,0.8289,0.829,0.8291,0.8346,0,0.8541,0.8538,0.85,0.8509,0.8503,0.8456,0.8457,0.8434,0.841,0.8403,0.8376,0.8367,0.8333,0.8325,0.833,0.8304,0.8328,0.8299,0.8293,0.8293,0.8304,0.8383,0.8407,0.846,0.8352,0.8353,0.8354,0,0.8596,0.8579,0.8588,0.8552,0.8548,0.8549,0.853,0.8522,0.8497,0.8479,0.8466,0.8433,0.8433,0.8399,0.8401,0.8382,0.8377,0.8364,0.8365,0.8365,0.8329,0.8388,0.8475,0.8485,0.8364,0.8363,0.8362,0,0.8667,0.8645,0.8648,0.8637,0.8595,0.8597,0.858,0.8553,0.8545,0.8529,0.8524,0.8507,0.8499,0.8489,0.8454,0.8431,0.8461,0.8422,0.8448,0.845,0.8458,0.8459,0.8549,0.8451,0.8451,0.845,0.845,0,0.8726,0.8734,0.868,0.8682,0.8691,0.8647,0.8657,0.8635,0.8612,0.8611,0.8569,0.8569,0.8521,0.8517,0.8489,0.8497,0.8492,0.848,0.8473,0.8485,0.8488,0.8484,0.848,0.8452,0.8452,0.8452,0.8451,0,0.8807,0.877,0.8771,0.8731,0.8722,0.873,0.8697,0.8698,0.8672,0.8672,0.8669,0.8628,0.8621,0.8584,0.8568,0.855,0.8568,0.8552,0.8577,0.8573,0.8602,0.8602,0.8696,0.8707,0.8599,0.86,0.8601,0,0.8848,0.8854,0.8815,0.8811,0.8796,0.879,0.8782,0.874,0.8734,0.8707,0.8713,0.8702,0.8691,0.8682,0.8652,0.8641,0.8626,0.866,0.8624,0.8638,0.8631,0.8632,0.8634,0.8669,0.867,0.8671,0.8672,0,0.8928,0.891,0.8899,0.8884,0.8876,0.8862,0.8845,0.8845,0.8798,0.8794,0.8786,0.8778,0.8762,0.8754,0.8737,0.8721,0.8691,0.8683,0.8689,0.8704,0.8719,0.8715,0.8602,0.8682,0.8681,0.868,0.868,0.8679,0.8992,0.8996,0.897,0.8962,0.8945,0.8931,0.8932,0.8906,0.8899,0.8883,0.8858,0.8855,0.8832,0.8807,0.8794,0.8792,0.8773,0.8781,0.8784,0.8787,0.8795,0.8717,0.8788,0.8788,0.8787,0.8787,0.8787,0,0.9072,0.9054,0.9046,0.9025,0.9019,0.8989,0.897,0.8967,0.8964,0.8945,0.8936,0.8929,0.8921,0.8891,0.888,0.8885,0.8871,0.8884,0.8885,0.8882,0.881,0.8807,0.8895,0.8895,0.8895,0.8895,0.8895,0.8895,0.9113,0.912,0.9099,0.9098,0.908,0.9076,0.9068,0.9056,0.9041,0.9035,0.9028,0.9009,0.8986,0.8974,0.8966,0.8957,0.8957,0.8976,0.8963,0.8897,0.8887,0.8877,0.8874,0.8975,0.8975,0.9036,0.9036,0.9037]},{"header":{"parameterUnit":"m.s-1","parameterCategory":1,"la1":30.2991,"la2":30.254,"lo1":-89.0895,"lo2":-89.0444,"dy":0.0017,"dx":0.0017,"nx":28,"ny":28,"refTime":"2025-03-11T03:00:00:Z","depth":0,"parameterNumber":3,"parameterNumberName":"V-component_of_WINDS"},"data":[0,0,0,0,0,0,0,0,0,0,0,0,0,0,0,0,0,0,0,0,0,0,0,0,0,0,0,0,0,0,0,0,0,0,0,0,0,0,0,0,0,0,0,0,0,0,0,0,0,0,0,0,0,0,0,0,0,0,-2.0288,-2.0287,0,-2.0266,-2.0265,-2.0265,-2.026,-2.0261,-2.0261,-2.0261,-2.0235,-2.0234,-2.0233,0,0,0,0,0,0,0,0,0,0,0,0,0,-2.0322,-2.0321,-2.0288,-2.0287,-2.0287,-2.0266,-2.0265,-2.0265,-2.026,-2.0261,-2.0261,-2.0261,-2.0235,-2.0234,-2.0233,0,0,0,0,0,0,0,0,0,0,0,0,0,-2.0304,-2.0321,-2.0288,-2.0282,-2.0281,-2.0266,-2.0265,-2.0265,-2.026,-2.0261,-2.0261,-2.0261,-2.0236,-2.0235,-2.0233,-2.022,0,0,-2.0229,-2.0229,0,0,0,0,0,0,0,0,-2.0305,-2.0303,-2.0283,-2.0283,-2.0282,-2.0266,-2.0268,-2.025,-2.026,-2.0268,-2.0261,-2.0261,-2.0245,-2.0243,-2.0238,-2.0219,-2.0218,-2.0229,-2.0229,-2.0228,-2.0228,0,0,0,0,0,0,0,-2.0306,-2.0304,-2.0279,-2.0283,-2.0282,-2.028,-2.0277,-2.0265,-2.0255,-2.0268,-2.0267,-2.0265,-2.0245,-2.0239,-2.0238,-2.0218,-2.0229,-2.0228,-2.0227,-2.0227,-2.0186,-2.0185,0,0,0,0,0,0,-2.0309,-2.0305,-2.0279,-2.0278,-2.0294,-2.0279,-2.0276,-2.0271,-2.0256,-2.0254,-2.0265,-2.0265,-2.0242,-2.0239,-2.0237,-2.022,-2.0228,-2.0227,-2.0226,-2.0186,-2.0186,-2.0185,0,0,0,0,0,0,-2.031,-2.0307,-2.028,-2.0291,-2.0288,-2.0278,-2.0272,-2.027,-2.0265,-2.0253,-2.0251,-2.0261,-2.0242,-2.0238,-2.0224,-2.0219,-2.0226,-2.0225,-2.0186,-2.0186,-2.0185,-2.0187,0,0,0,0,0,0,-2.0311,-2.0307,-2.0303,-2.0291,-2.0287,-2.027,-2.0272,-2.027,-2.0263,-2.0263,-2.025,-2.0248,-2.0242,-2.0226,-2.0223,-2.0217,-2.0224,-2.0187,-2.0186,-2.0186,-2.0187,-2.0186,-2.0186,0,0,0,0,0,-2.0312,-2.0304,-2.0303,-2.03,-2.0282,-2.0269,-2.0267,-2.0261,-2.0263,-2.0258,-2.025,-2.0248,-2.022,-2.0225,-2.0221,-2.0215,-2.0187,-2.0186,-2.0186,-2.0187,-2.0186,-2.0186,0,0,0,0,0,0,-2.0314,-2.0302,-2.0301,-2.0289,-2.028,-2.0269,-2.0263,-2.026,-2.025,-2.025,-2.0243,-2.0239,-2.0226,-2.0219,-2.0225,-2.0201,-2.0204,-2.0202,-2.0206,-2.0205,-2.0204,-2.0206,-2.0223,0,0,0,0,0,-2.0313,-2.0305,-2.0294,-2.0285,-2.0281,-2.0272,-2.0267,-2.0263,-2.0253,-2.0249,-2.0241,-2.023,-2.0219,-2.0212,-2.0201,-2.0186,-2.0182,-2.018,-2.0179,-2.0179,-2.0177,-2.0168,-2.0166,-2.0183,-2.0183,-2.0183,0,0,-2.0311,-2.0303,-2.0299,-2.0285,-2.0278,-2.0268,-2.0269,-2.0259,-2.0252,-2.0247,-2.0234,-2.0227,-2.0215,-2.02,-2.0193,-2.0194,-2.0172,-2.0178,-2.0177,-2.0176,-2.0167,-2.0165,-2.0164,-2.0182,-2.0182,-2.0182,0,0,-2.0302,-2.0296,-2.0287,-2.028,-2.027,-2.0264,-2.0262,-2.0251,-2.0246,-2.0233,-2.0229,-2.0219,-2.02,-2.0192,-2.0185,-2.0172,-2.0169,-2.0169,-2.0164,-2.0155,-2.0154,-2.0153,-2.0147,-2.0145,-2.0167,-2.0167,-2.0167,0,-2.03,-2.0287,-2.0282,-2.0273,-2.0266,-2.0263,-2.0253,-2.0246,-2.0232,-2.0227,-2.0228,-2.0204,-2.0196,-2.0179,-2.0176,-2.017,-2.0167,-2.017,-2.0155,-2.0153,-2.0152,-2.0147,-2.0145,-2.0167,-2.0167,-2.0167,-2.0167,0,-2.0285,-2.0276,-2.027,-2.0257,-2.025,-2.024,-2.0233,-2.0226,-2.0223,-2.0217,-2.0202,-2.0192,-2.0178,-2.0174,-2.0171,-2.0156,-2.0157,-2.0157,-2.0159,-2.0151,-2.0145,-2.0143,-2.0167,-2.0167,-2.0167,-2.0167,0,0,-2.0277,-2.0262,-2.026,-2.0254,-2.0242,-2.0234,-2.0223,-2.0211,-2.0205,-2.0195,-2.0185,-2.0169,-2.0169,-2.0161,-2.0156,-2.0148,-2.0138,-2.0149,-2.0149,-2.0146,-2.012,-2.0119,-2.0117,-2.0136,-2.0136,-2.0135,-2.012,0,-2.0266,-2.0249,-2.0244,-2.0228,-2.0219,-2.0215,-2.0205,-2.0196,-2.019,-2.018,-2.0173,-2.0161,-2.0162,-2.0157,-2.0149,-2.0141,-2.0132,-2.0142,-2.0125,-2.0124,-2.0127,-2.0114,-2.0114,-2.0101,-2.0118,-2.0118,-2.0118,0,-2.0251,-2.0242,-2.0226,-2.0215,-2.0211,-2.0202,-2.019,-2.0182,-2.017,-2.0166,-2.0158,-2.0153,-2.0141,-2.0144,-2.0125,-2.0132,-2.0125,-2.0119,-2.0119,-2.0116,-2.012,-2.0111,-2.0096,-2.0094,-2.0115,-2.0115,-2.0115,0,-2.0246,-2.023,-2.0218,-2.0213,-2.0199,-2.0193,-2.0187,-2.0177,-2.017,-2.0159,-2.0154,-2.0141,-2.0134,-2.0123,-2.0115,-2.0119,-2.0097,-2.01,-2.0092,-2.0092,-2.0087,-2.0087,-2.007,-2.0084,-2.0084,-2.0084,-2.0084,0,-2.0234,-2.0224,-2.0215,-2.0207,-2.0195,-2.0189,-2.0177,-2.0171,-2.0161,-2.0151,-2.0147,-2.0138,-2.0128,-2.0117,-2.011,-2.0095,-2.0092,-2.0087,-2.0085,-2.0087,-2.0088,-2.0082,-2.0082,-2.0083,-2.0083,-2.0083,-2.0083,0,-2.0226,-2.0219,-2.0206,-2.0195,-2.0191,-2.0183,-2.0173,-2.0164,-2.0158,-2.0145,-2.0142,-2.0132,-2.0118,-2.0109,-2.0092,-2.0087,-2.007,-2.0069,-2.0074,-2.0073,-2.0065,-2.0066,-2.0043,-2.0039,-2.0056,-2.0056,-2.0056,0,-2.0218,-2.021,-2.0198,-2.0192,-2.0186,-2.0176,-2.0169,-2.0162,-2.0154,-2.0141,-2.0134,-2.012,-2.0109,-2.0087,-2.0077,-2.0063,-2.0061,-2.0054,-2.0059,-2.0061,-2.006,-2.006,-2.0059,-2.0053,-2.0053,-2.0053,-2.0053,0,-2.0205,-2.0202,-2.0193,-2.0182,-2.0173,-2.0164,-2.0155,-2.015,-2.0141,-2.0132,-2.0119,-2.011,-2.0093,-2.0079,-2.0064,-2.0056,-2.0052,-2.0052,-2.0049,-2.005,-2.0053,-2.005,-2.0071,-2.0052,-2.0052,-2.0052,-2.0052,-2.0052,-2.0196,-2.0189,-2.0179,-2.0168,-2.0161,-2.0152,-2.0144,-2.0136,-2.0126,-2.0112,-2.0108,-2.0094,-2.0081,-2.0061,-2.0053,-2.0041,-2.0041,-2.0038,-2.0036,-2.0035,-2.0035,-2.0056,-2.0038,-2.0038,-2.0038,-2.0038,-2.0038,0,-2.0182,-2.0176,-2.0166,-2.0153,-2.0144,-2.0143,-2.0133,-2.0125,-2.0113,-2.0102,-2.0092,-2.0075,-2.0062,-2.0051,-2.0036,-2.0028,-2.0026,-2.0024,-2.0024,-2.0022,-2.0036,-2.0039,-2.0026,-2.0026,-2.0026,-2.0026,-2.0026,-2.0026,-2.0174,-2.0161,-2.0157,-2.014,-2.0133,-2.012,-2.0114,-2.0105,-2.0097,-2.008,-2.0068,-2.0062,-2.005,-2.0035,-2.0022,-2.0019,-2.0013,-2.0011,-2.0008,-2.002,-2.0021,-2.0023,-2.0026,-2.001,-2.001,-1.9995,-1.9995,-1.9995]}]]